Location: Nordegg
(52.4712°N, 116.0743°W)
Time: 08:42:17
(UTC+00:00)

Envisat - Pass Details

Date: 08 December 2021
Orbit: 764 x 766 km, 98.2° (Epoch: 25 January)

Event Time Altitude Azimuth Distance (km) Brightness Sun altitude
Rises 14:40:51 0° 6° (N) 3,248 6.0 -8.7°
Reaches altitude 10° 14:43:47 10° 348° (NNW) 2,317 5.1 -8.3°
Maximum altitude 14:47:12 19° 306° (NW) 1,795 4.3 -7.8°
Drops below altitude 10° 14:50:37 10° 264° (W) 2,307 5.0 -7.4°
Sets 14:53:32 0° 246° (WSW) 3,228 5.9 -7.0°
